Location: Bowden
(51.9167°N, 114.0333°W)
Time: 01:07:08
(UTC+00:00)

Envisat - Pass Details

Date: 09 December 2021
Orbit: 764 x 766 km, 98.2° (Epoch: 28 January)

Event Time Altitude Azimuth Distance (km) Brightness Sun altitude
Rises 14:03:52 0° 7° (N) 3,248 6.1 -12.6°
Reaches altitude 10° 14:06:28 10° 356° (N) 2,317 5.2 -12.3°
Maximum altitude 14:10:41 27° 300° (WNW) 1,442 3.9 -11.7°
Drops below altitude 10° 14:14:55 10° 244° (WSW) 2,303 5.1 -11.1°
Sets 14:17:30 0° 232° (SW) 3,225 5.9 -10.7°
